Lawton, OK

1:45 PM CDT on August 26, 2016 (GMT -0500)
Post Army Air Field

Weather History for KFSI - October, 2012

Change the Weather History Date:

Sunday, October 7, 2012

  Actual Average Record
Temperature  
Mean Temperature 48 °F -  
Max Temperature 54 °F 77 °F 98 °F (1963)
Min Temperature 41 °F 51 °F 34 °F (1952)
Degree Days  
Heating Degree Days 17    
Moisture  
Dew Point 32 °F    
Average Humidity 58    
Maximum Humidity 70    
Minimum Humidity 37    
Precipitation  
Precipitation 0.00 in - - ()
Sea Level Pressure  
Sea Level Pressure 30.30 in    
Wind  
Wind Speed 7 mph (NNE)    
Max Wind Speed 13 mph    
Max Gust Speed -    
Visibility 10 miles    
Events Rain    
Averages and records for this station are not official NWS values.
T = Trace of Precipitation, MM = Missing Value Source: NWS Daily Summary

Daily Weather History Graph

Daily Weather History Graph

Search for Another Location

Airport or City:

Trip Planner

Search our weather history database for the weather conditions in past years. The results will help you decide how hot, cold, wet, or windy it might be!

Date:

Astronomy

Oct. 07, 2012 Rise Set
Actual Time 7:33 AM CDT 7:08 PM CDT
Civil Twilight 7:08 AM CDT 7:33 PM CDT
Nautical Twilight 6:38 AM CDT 8:03 PM CDT
Astronomical Twilight 6:09 AM CDT 8:32 PM CDT
Moon No Moon Rise 2:01 PM CDT (10/7)
Length of Visible Light 12h 25m
Length of Day
11h 35m
Waning Gibbous, 56% of the Moon is Illuminated
Oct 7
Waning Gibbous
Oct 8
Last Quarter
Oct 15
New
Oct 21
First Quarter
Oct 29
Full

Hourly Weather History & Observations

Time (CDT) Temp. Windchill Dew Point Humidity Pressure Visibility Wind Dir Wind Speed Gust Speed Precip Events Conditions
12:55 AM 44.8 °F 40.4 °F 33.6 °F 65% 30.34 in 10.0 mi NNE 8.1 mph - N/A   Overcast
1:55 AM 43.7 °F 39.1 °F 34.0 °F 69% 30.33 in 10.0 mi North 8.1 mph - N/A   Overcast
2:55 AM 43.7 °F 38.1 °F 33.3 °F 67% 30.34 in 10.0 mi NNE 10.4 mph - N/A   Mostly Cloudy
3:55 AM 43.0 °F 38.8 °F 33.8 °F 70% 30.33 in 10.0 mi NNE 6.9 mph - N/A   Overcast
4:55 AM 43.2 °F 37.9 °F 32.9 °F 67% 30.33 in 10.0 mi North 9.2 mph - N/A   Partly Cloudy
5:55 AM 42.4 °F 38.1 °F 32.9 °F 69% 30.33 in 10.0 mi NNE 6.9 mph - N/A   Scattered Clouds
6:55 AM 42.8 °F 38.6 °F 33.6 °F 70% 30.33 in 10.0 mi North 6.9 mph - N/A   Scattered Clouds
7:00 AM 42.8 °F 38.0 °F 33.8 °F 70% 30.34 in 10.0 mi North 8.1 mph - N/A Rain Light Rain
7:15 AM 42.8 °F 38.6 °F 33.8 °F 70% 30.32 in 10.0 mi NE 6.9 mph - N/A   Partly Cloudy
7:30 AM 42.8 °F 39.3 °F 33.8 °F 70% 30.31 in 10.0 mi NE 5.8 mph - N/A Rain Light Rain
7:43 AM 42.8 °F 38.6 °F 33.8 °F 70% 30.32 in 10.0 mi NNE 6.9 mph - N/A   Scattered Clouds
8:55 AM 44.1 °F 37.7 °F 34.7 °F 70% 30.35 in 10.0 mi North 12.7 mph - N/A   Mostly Cloudy
9:55 AM 45.3 °F 41.1 °F 35.2 °F 68% 30.35 in 10.0 mi NNE 8.1 mph - N/A   Scattered Clouds
10:55 AM 46.6 °F - 32.9 °F 59% 30.34 in 10.0 mi NE 4.6 mph - N/A   Overcast
11:55 AM 49.3 °F - 28.6 °F 45% 30.34 in 10.0 mi NE 5.8 mph - N/A   Overcast
12:55 PM 51.6 °F - 28.0 °F 40% 30.31 in 10.0 mi Variable 4.6 mph - N/A   Overcast
1:55 PM 52.2 °F - 28.0 °F 39% 30.28 in 10.0 mi Calm Calm - N/A   Overcast
2:55 PM 54.0 °F - 28.6 °F 38% 30.25 in 9.0 mi NNE 4.6 mph - N/A   Overcast
3:55 PM 53.2 °F - 27.1 °F 37% 30.25 in 10.0 mi North 8.1 mph - N/A   Overcast
4:55 PM 51.4 °F - 27.1 °F 39% 30.24 in 10.0 mi NNE 10.4 mph - N/A   Overcast
5:55 PM 50.5 °F - 27.9 °F 42% 30.22 in 10.0 mi NE 8.1 mph - N/A   Overcast
6:55 PM 49.5 °F - 28.0 °F 44% 30.22 in 10.0 mi ENE 5.8 mph - N/A   Overcast
7:55 PM 48.9 °F - 29.3 °F 47% 30.24 in 10.0 mi ENE 3.5 mph - N/A   Overcast
8:55 PM 48.6 °F - 30.6 °F 50% 30.24 in 10.0 mi NE 3.5 mph - N/A   Overcast
9:55 PM 44.4 °F 42.0 °F 32.5 °F 63% 30.25 in 10.0 mi NE 4.6 mph - N/A   Clear
10:55 PM 44.2 °F 42.7 °F 32.2 °F 63% 30.26 in 10.0 mi North 3.5 mph - N/A   Clear
11:55 PM 41.7 °F - 32.5 °F 70% 30.25 in 10.0 mi Calm Calm - N/A   Clear